Weather in Al-Qurayyat

Saudi Arabia     31°19′51″N   37°20′42″E
temp.,
°C
wind,
m/s
gust,
m/s
humid.,
%
clouds,
%
prec.,
mm/h
press.,
hPa
HPBL,
m
21 april, wed
wed2100:00+25nw813325 0.0 1012270
03:00+23wnw913325 0.0 1012283
06:00+20nw611370 0.0 1014245
09:00+24nw89270 0.0 1014420
12:00+30nw66147 0.0 1013749
15:00+33nw661152 0.0 10111257
18:00+31nw8812100 0.0 10111160
21:00+26nw7920100 0.0 1014533
22 april, thu
thu2200:00+23nw71022100 0.0 1015429
03:00+20nw61025100 0.1 1015292
06:00+19wnw712219 0.0 1015267
09:00+23nw791211 0.0 1017419
12:00+28nw7685 0.0 1015843
15:00+31nw8785 0.0 10131373
18:00+29nw99110 0.0 10131212
21:00+23nw812230 0.0 1015385
23 april, fri
fri2300:00+20nw611263 0.0 1016236
03:00+18nw610265 0.0 1016177
06:00+17nw57274 0.0 1015104
09:00+22n55200 0.0 1016406
12:00+28nne23150 0.0 10141119
15:00+32nne22130 0.0 10101904
18:00+33nne12130 0.0 10092086
21:00+29nnw45160 0.0 101147
24 april, sat
sat2400:00+24nw69244 0.0 1011140
03:00+23wnw222692 0.0 101119
06:00+22ese1128100 0.0 101111
09:00+27se692015 0.0 1012560
12:00+33se891297 0.0 10101981
15:00+35se78100 0.1 10073874
18:00+34sse3612100 0.0 10061688
21:00+27e8142739 0.3 1009331
25 april, sun
sun2500:00+27ese332590 0.0 100924
03:00+24nne23325 0.0 100913
06:00+22ese33295 0.0 100913
09:00+29sse58150 0.0 1010664
12:00+34s45110 0.0 10081712
15:00+37sw7770 0.0 10054061
18:00+34wnw109110 0.0 10041478
21:00+29wnw611170 0.0 1007214